Temp_Advection
nan nan nan nan nan nan nan nan nan nan nan nan nan nan nan nan nan nan nan nan nan nan
nan 0 0 0 0 0 0 0 -0 -0 -1 0 0 -0 -0 0 0 -0 -0 0 1 nan
nan -0 0 1 0 0 0 0 -0 -0 -0 -0 0 -0 -0 -0 -0 -0 -0 0 0 nan
nan 0 0 0 0 0 0 0 -0 -0 -0 -0 -0 -1 -0 -0 -0 0 -0 -1 -0 nan
nan -0 0 0 1 0 0 0 -0 -0 -0 -0 -1 -1 -0 0 0 -0 -1 -1 -0 nan
nan -0 0 0 0 0 0 0 -0 -0 -0 -0 -0 -0 0 -0 -0 0 -1 0 1 nan
nan 0 0 0 0 1 0 0 -0 -0 -0 -0 -0 0 0 0 0 0 -0 1 1 nan
nan -0 -0 0 0 0 -0 0 0 0 0 0 0 0 0 0 1 0 1 1 2 nan
nan -0 -0 -0 -0 0 -0 -0 0 0 0 0 -0 1 1 1 0 1 1 1 1 nan
nan -0 -0 -0 -0 0 -0 -0 -0 -0 0 0 0 0 1 1 1 1 0 0 -0 nan
nan 0 -0 -0 -0 -0 -0 -0 -0 0 -0 0 -0 0 0 0 0 1 1 1 0 nan
nan -0 -0 -0 -0 -0 -0 0 0 -0 -0 -0 -0 -0 -0 0 0 0 0 0 0 nan
nan 0 -0 -0 -0 -0 -0 0 0 0 0 -0 0 -0 -0 -0 0 0 0 0 0 nan
nan nan nan nan nan nan nan nan nan nan nan nan nan nan nan nan nan nan nan nan nan nan
Wind_Speed
21 23 25 27 24 24 26 29 30 31 27 31 29 34 38 44 46 53 52 58 51 49
20 23 24 24 19 24 27 28 33 31 34 32 35 33 35 40 47 49 53 52 47 44
19 20 19 19 15 19 21 19 22 26 32 33 37 38 34 41 45 54 57 51 47 46
19 17 18 18 16 14 14 14 22 22 26 32 35 38 35 41 49 48 52 58 46 48
16 16 16 17 18 12 9 17 18 20 23 28 37 35 31 47 56 54 56 50 50 46
12 13 15 11 16 13 6 12 8 7 3 28 30 31 32 38 48 50 53 49 52 47
13 13 11 13 12 13 6 6 12 9 11 10 15 30 32 37 35 38 43 45 43 45
5 6 7 8 9 10 8 5 9 5 4 6 13 20 30 29 41 36 41 39 35 40
7 6 9 6 0 10 10 7 6 1 5 15 13 17 20 22 23 25 25 30 30 30
11 6 6 6 9 7 7 6 7 9 9 9 11 16 21 21 26 27 26 27 26 25
14 5 8 4 7 9 6 5 4 6 12 9 16 13 18 20 20 22 22 21 20 20
10 10 7 6 3 10 7 8 7 7 12 10 11 14 18 20 17 17 18 18 18 17
8 8 11 7 5 13 9 9 8 8 8 14 5 15 13 12 14 12 15 18 17 17
9 10 11 11 10 12 10 8 10 8 11 13 13 13 12 13 14 14 15 14 12 14
Wind_Direction
264 267 276 287 273 270 271 268 258 249 245 243 242 232 229 229 227 229 223 224 208 206
278 270 282 286 267 276 270 264 256 252 247 245 240 239 233 224 220 224 218 218 213 207
286 278 292 281 272 286 274 262 255 255 247 236 242 237 239 225 216 217 220 227 203 204
288 279 293 283 266 299 281 273 280 259 242 239 241 230 231 226 224 228 224 212 200 203
281 287 289 289 273 259 302 260 288 257 242 239 229 233 232 220 219 223 217 209 205 206
279 289 292 302 284 242 291 244 309 221 279 225 231 229 224 224 224 221 209 204 208 205
294 280 290 292 286 254 213 234 234 262 278 279 225 212 221 205 222 216 214 207 208 205
310 301 329 301 284 232 171 194 203 210 175 226 52 211 215 225 219 208 201 207 205 190
15 21 18 44 7 209 148 168 204 220 121 162 81 80 170 169 165 167 168 167 177 177
34 51 26 43 83 202 158 148 178 161 157 143 185 93 98 114 150 151 149 152 152 153
34 78 47 42 98 129 114 204 240 217 156 146 143 133 120 121 118 123 136 142 148 154
46 40 55 56 130 137 135 123 128 101 151 154 145 160 150 148 151 152 152 149 158 163
59 65 56 71 103 155 120 113 116 123 122 194 189 162 165 168 194 180 172 178 182 194
78 75 79 68 101 144 159 152 145 154 150 172 192 165 190 201 186 179 183 184 197 198
Height
1439 1439 1438 1436 1433 1431 1431 1431 1434 1435 1436 1439 1442 1445 1446 1450 1455 1459 1463 1467 1474 1480
1433 1433 1431 1428 1426 1425 1424 1423 1425 1426 1428 1430 1434 1436 1439 1442 1445 1451 1455 1459 1468 1474
1427 1425 1424 1421 1420 1418 1416 1415 1415 1416 1418 1422 1424 1429 1431 1432 1440 1441 1448 1453 1459 1470
1421 1419 1418 1415 1414 1412 1410 1409 1408 1408 1409 1412 1415 1420 1423 1427 1431 1437 1441 1445 1453 1462
1415 1413 1412 1409 1408 1407 1406 1406 1403 1400 1401 1403 1406 1411 1416 1418 1422 1429 1432 1440 1449 1457
1410 1409 1407 1404 1403 1402 1402 1403 1402 1399 1397 1397 1401 1404 1407 1414 1417 1421 1424 1435 1442 1450
1405 1404 1402 1400 1398 1398 1399 1399 1400 1400 1398 1398 1396 1398 1402 1408 1413 1418 1423 1430 1440 1445
1402 1401 1399 1397 1395 1396 1398 1399 1399 1401 1399 1399 1397 1396 1400 1405 1410 1411 1421 1429 1435 1442
1402 1401 1398 1395 1394 1396 1397 1399 1400 1401 1400 1400 1402 1400 1400 1405 1409 1413 1421 1428 1438 1446
1401 1400 1398 1397 1395 1396 1398 1400 1401 1402 1403 1403 1405 1405 1406 1409 1414 1419 1425 1432 1438 1445
1403 1401 1400 1399 1398 1398 1400 1400 1401 1402 1404 1406 1409 1412 1414 1417 1421 1426 1432 1437 1442 1447
1406 1404 1401 1401 1399 1400 1401 1402 1403 1404 1406 1409 1412 1415 1419 1423 1427 1433 1437 1441 1447 1451
1408 1407 1405 1403 1403 1402 1403 1404 1405 1407 1408 1411 1414 1418 1421 1425 1430 1433 1438 1443 1446 1450
1411 1410 1408 1407 1406 1406 1406 1408 1409 1410 1411 1413 1416 1419 1422 1425 1429 1433 1437 1441 1444 1447